Back to catalog

STARLINK-11163

AliveCommunicationsVLEO
NORAD 60047·PAYLOAD·🇺🇸 United States

Launched Jun 8, 2024 from Vandenberg Space Force Base

Loading…

Next Passes (next 24 hours)

TLE

FreshSource: CelesTrak SupGP

Epoch: Sep 14, 2026, 22:13 UTC

1 60047C 24112K   26257.92618056  .00090912  00000+0  75041-3 0  2573
2 60047  53.1571  53.2206 0001069  81.5743 335.7025 15.69614536    15

Track STARLINK-11163 in real time with AllMySat

Download on the App Store